Погода в Зеленой Роще

Россия / Ульяновская область     54°09′33″N   48°01′21″E
темп.,
°C
ветер,
м/с
пор.,
м/с
влажн.,
%
обл.,
%
осадки,
мм/ч
давл.,
гПа
погр.,
м
11 мая, вт
вт1101:00+15ссв4667100 0.0 1019106
04:00+14св477576 0.0 1021155
07:00+15всв3671100 0.0 1022136
10:00+20в4650100 0.0 1023486
13:00+21в464583 0.0 10251127
16:00+23в5104147 0.0 10242071
19:00+19всв356199 0.0 1025142
22:00+15з017248 0.0 102619
12 мая, ср
ср1201:00+14ссз228179 0.0 102623
04:00+14всв227791 0.0 102622
07:00+15в3107312 0.0 1026306
10:00+20вюв595583 0.0 10261050
13:00+16в31067100 0.0 1027366
16:00+20вюв684997 0.0 1026948
19:00+17юв376673 0.0 1026192
22:00+15юв366970 0.0 1026141
13 мая, чт
чт1301:00+15в236447 0.0 102661
04:00+12всв337242 0.0 102633
07:00+14в3116854 0.0 1026282
10:00+19вюв61053100 0.0 1025574
13:00+20юв4752100 0.1 1025671
16:00+21в61150100 0.1 1023940
19:00+21юв5115289 0.0 1022317
22:00+17юв3559100 0.1 102272
14 мая, пт
пт1401:00+16юв115731 0.0 102211
04:00+13вюв33632 0.0 102244
07:00+15ююв376328 0.0 1022221
10:00+21ю465149 0.0 1022461
13:00+26ю68405 0.0 10221106
16:00+26ю6103898 0.0 10211370
19:00+23ю410515 0.0 1021274
22:00+18ююв4135727 0.0 1021256
15 мая, сб
сб1501:00+17ю412575 0.0 1021196
04:00+15ю39565 0.0 1021136
07:00+17ю410585 0.0 1021218
10:00+23ю69422 0.0 1020434
13:00+26ю811292 0.0 10201208
16:00+27ю610332 0.0 10191510
19:00+23ю410464 0.0 1018253
22:00+19ююв410487 0.0 1018150